Weather History for Sussex, NJ

Change the Weather History Date:

Tuesday, November 20, 2012

  Actual Average Record
Temperature  
Mean Temperature 34 °F -  
Max Temperature 46 °F 48 °F 72 °F (1948)
Min Temperature 23 °F 25 °F 12 °F (1984)
Degree Days  
Heating Degree Days 30    
Moisture  
Dew Point 25 °F    
Average Humidity 75    
Maximum Humidity 92    
Minimum Humidity 41    
Precipitation  
Precipitation 0.00 in - - ()
Sea Level Pressure  
Sea Level Pressure 30.18 in    
Wind  
Wind Speed 1 mph (NE)    
Max Wind Speed 5 mph    
Max Gust Speed -    
Visibility 10 miles    
Events      
Averages and records for this station are not official NWS values.
T = Trace of Precipitation, MM = Missing Value Source: NWS Daily Summary

Daily Weather History Graph

Daily Weather History Graph

Search for Another Location

Airport:

Trip Planner

Search our weather history database for the weather conditions in past years. The results will help you decide how hot, cold, wet, or windy it might be!

Date:

Astronomy

Nov. 20, 2012 Rise Set
Actual Time 6:52 AM EST 4:35 PM EST
Civil Twilight 6:22 AM EST 5:05 PM EST
Nautical Twilight 5:49 AM EST 5:38 PM EST
Astronomical Twilight 5:16 AM EST 6:11 PM EST
Moon 12:23 PM EST (11/20) No Moon Set
Length of Visible Light 10h 42m
Length of Day
9h 42m
Waxing Crescent, 51% of the Moon is Illuminated
Nov 20
Waxing Crescent
Nov 28
Full
Dec 6
Last Quarter
Dec 13
New
Dec 20
First Quarter

Hourly Weather History & Observations

Time (EST) Temp. Windchill Dew Point Humidity Pressure Visibility Wind Dir Wind Speed Gust Speed Precip Events Conditions
12:53 AM 24.1 °F - 21.0 °F 88% 30.25 in 8.0 mi Calm Calm - N/A   Clear
1:53 AM 25.0 °F - 21.9 °F 88% 30.23 in 10.0 mi Calm Calm - N/A   Clear
2:53 AM 25.0 °F - 21.9 °F 88% 30.23 in 10.0 mi Calm Calm - N/A   Clear
3:53 AM 23.0 °F - 21.0 °F 92% 30.22 in 10.0 mi Calm Calm - N/A   Clear
4:53 AM 24.1 °F - 21.0 °F 88% 30.21 in 9.0 mi Calm Calm - N/A   Clear
5:53 AM 23.0 °F 18.4 °F 21.0 °F 92% 30.21 in 10.0 mi SSW 3.5 mph - N/A   Clear
6:53 AM 24.1 °F - 21.0 °F 88% 30.21 in 9.0 mi Calm Calm - N/A   Clear
7:53 AM 26.1 °F - 24.1 °F 92% 30.22 in 8.0 mi Calm Calm - N/A   Clear
8:53 AM 30.0 °F - 28.0 °F 92% 30.21 in 7.0 mi Calm Calm - N/A   Clear
9:53 AM 35.1 °F - 30.0 °F 82% 30.20 in 8.0 mi Calm Calm - N/A   Clear
10:53 AM 41.0 °F - 30.0 °F 65% 30.20 in 10.0 mi Calm Calm - N/A   Clear
11:53 AM 45.0 °F 42.6 °F 26.1 °F 48% 30.16 in 10.0 mi ENE 4.6 mph - N/A   Clear
12:53 PM 46.9 °F - 25.0 °F 42% 30.15 in 10.0 mi NNE 4.6 mph - N/A   Clear
1:53 PM 46.9 °F - 24.1 °F 41% 30.14 in 10.0 mi NE 3.5 mph - N/A   Clear
2:53 PM 46.9 °F - 25.0 °F 42% 30.13 in 10.0 mi ENE 3.5 mph - N/A   Clear
3:53 PM 45.0 °F 43.5 °F 26.1 °F 48% 30.14 in 10.0 mi NNE 3.5 mph - N/A   Clear
4:53 PM 39.0 °F - 27.0 °F 62% 30.14 in 10.0 mi Calm Calm - N/A   Clear
5:53 PM 36.0 °F - 27.0 °F 70% 30.15 in 10.0 mi Calm Calm - N/A   Clear
6:53 PM 34.0 °F - 27.0 °F 75% 30.16 in 10.0 mi Calm Calm - N/A   Clear
7:53 PM 30.9 °F - 26.1 °F 82% 30.16 in 10.0 mi Calm Calm - N/A   Clear
8:53 PM 30.9 °F - 27.0 °F 85% 30.15 in 10.0 mi Calm Calm - N/A   Clear
9:53 PM 30.9 °F - 27.0 °F 85% 30.16 in 10.0 mi Calm Calm - N/A   Clear
10:53 PM 30.9 °F - 27.0 °F 85% 30.17 in 10.0 mi Calm Calm - N/A   Clear
11:53 PM 30.9 °F - 27.0 °F 85% 30.17 in 10.0 mi Calm Calm - N/A   Clear